Satellite: ISS
Catalog number: 25544
Epoch time:      08248.50206378
Element set:     188
Inclination:      051.6444 deg
RA of node:       329.4627 deg
Eccentricity:    0.0006906
Arg of perigee:   080.0465 deg
Mean anomaly:     036.0927 deg
Mean motion:   15.71905787 rev/day
Decay rate:      8.290e-05 rev/day^2
Epoch rev:           56101
Checksum:              308

Satellite: CO-58
Catalog number: 28895
Epoch time:      08248.43127026
Element set:     111
Inclination:      098.0884 deg
RA of node:       140.5296 deg
Eccentricity:    0.0018271
Arg of perigee:   158.1570 deg
Mean anomaly:     202.0434 deg
Mean motion:   14.59693688 rev/day
Decay rate:       1.86e-06 rev/day^2
Epoch rev:           15204
Checksum:              316

Satellite: FALCON
Catalog number: 30776
Epoch time:      08247.82487636
Element set:     389
Inclination:      035.4342 deg
RA of node:       036.5543 deg
Eccentricity:    0.0002129
Arg of perigee:   315.2080 deg
Mean anomaly:     044.8463 deg
Mean motion:   15.03043045 rev/day
Decay rate:       1.94e-06 rev/day^2
Epoch rev:            8198
Checksum:              291

Satellite: MAST
Catalog number: 31126
Epoch time:      08247.58511346
Element set:     411
Inclination:      098.0320 deg
RA of node:       308.8601 deg
Eccentricity:    0.0096045
Arg of perigee:   089.2234 deg
Mean anomaly:     272.0017 deg
Mean motion:   14.53443258 rev/day
Decay rate:        8.3e-07 rev/day^2
Epoch rev:            7340
Checksum:              266

Satellite: CAPE1
Catalog number: 31130
Epoch time:      08247.89014983
Element set:    0406
Inclination:      098.0340 deg
RA of node:       307.9828 deg
Eccentricity:    0.0104086
Arg of perigee:   091.4943 deg
Mean anomaly:     269.8149 deg
Mean motion:   14.51988341 rev/day
Decay rate:        3.1e-07 rev/day^2
Epoch rev:           07314
Checksum:              304

Satellite: COMPASS
Catalog number: 32787
Epoch time:      08247.46769824
Element set:    0139
Inclination:      097.9829 deg
RA of node:       307.1107 deg
Eccentricity:    0.0014870
Arg of perigee:   243.1087 deg
Mean anomaly:     116.8605 deg
Mean motion:   14.81454013 rev/day
Decay rate:       2.17e-06 rev/day^2
Epoch rev:           01899
Checksum:              319

Satellite: AAUSAT2
Catalog number: 32788
Epoch time:      08247.93103919
Element set:    0145
Inclination:      097.9829 deg
RA of node:       307.5896 deg
Eccentricity:    0.0013970
Arg of perigee:   239.3718 deg
Mean anomaly:     120.6119 deg
Mean motion:   14.81564107 rev/day
Decay rate:        2.6e-07 rev/day^2
Epoch rev:           01906
Checksum:              322

Satellite: DO-64
Catalog number: 32789
Epoch time:      08248.81943163
Element set:     148
Inclination:      097.9858 deg
RA of node:       308.5049 deg
Eccentricity:    0.0014662
Arg of perigee:   236.4933 deg
Mean anomaly:     123.4876 deg
Mean motion:   14.81463688 rev/day
Decay rate:       4.61e-06 rev/day^2
Epoch rev:            1919
Checksum:              354

Satellite: CO-66
Catalog number: 32791
Epoch time:      08247.41237920
Element set:    0134
Inclination:      097.9852 deg
RA of node:       307.0731 deg
Eccentricity:    0.0014983
Arg of perigee:   240.1672 deg
Mean anomaly:     119.8059 deg
Mean motion:   14.81309830 rev/day
Decay rate:       3.82e-06 rev/day^2
Epoch rev:           01895
Checksum:              315

Satellite: RS-30
Catalog number: 32953
Epoch time:      08247.56568081
Element set:    0099
Inclination:      082.4965 deg
RA of node:       074.8448 deg
Eccentricity:    0.0019887
Arg of perigee:   083.3966 deg
Mean anomaly:     276.9395 deg
Mean motion:   12.42997232 rev/day
Decay rate:        1.0e-07 rev/day^2
Epoch rev:           01278
Checksum:              352

/EX




_______________________________________________
Via the Keps mailing list courtesy of AMSAT-NA
http://amsat.org/mailman/listinfo/keps

--- ViaMAIL!/WC v1.60d
 * Origin: Chowdanet (401-724-4410) telnet://chowdanet.com  (1:323/120)